Preview of NWS' New Version of Forecast
This preview is not operational and should not be used for support decisions.

Regional Weather Roundup (RWR)

Issued by Gray - Portland, ME (GYX)

                            
000
ASUS41 KGYX 241905
RWRGYX
WEATHER ROUNDUP FOR MAINE AND NEW HAMPSHIRE
NATIONAL WEATHER SERVICE GRAY ME
300 PM EDT MON JUN 24 2019

MEZ002-005-006-010-012-015-018-020-021-024-026-027-029-242000-
MAINE
  
CITY           SKY/WX    TMP DP  RH WIND       PRES   REMARKS
PORTLAND       FAIR      69  50  50 S12       29.84R                  
SANFORD        FAIR      75  51  43 SE9       29.84R                  
BAR HARBOR     FAIR      73  43  33 NW8G20    29.82S                  
WISCASSET      FAIR      72  44  36 S9        29.85R                  
ROCKLAND       FAIR      66  45  46 S8G16     29.85R                  
FRYEBURG       FAIR      81  42  25 VRB5      29.82F                  
LEWISTONAUBURN FAIR      79  44  28 W7        29.82S                  
AUGUSTA        FAIR      76  45  33 SE5       29.83S                  
WATERVILLE     FAIR      76  44  32 N8        29.80S                  
BANGOR         FAIR      74  39  28 VRB3G21   29.82S                  
GREENVILLE       N/A     69  38  32 NW12      29.83S                  
MILLINOCKET    FAIR      73  40  30 W8        29.82F                  
HOULTON        FAIR      72  41  32 NW10      29.77F                  
PRESQUE ISLE   FAIR      70  40  33 N15       29.80S                  
FRENCHVILLE    FAIR      68  35  29 N13G26    29.82R                  
CARIBOU        FAIR      71  37  28 N13G23    29.79S                  
$$

NHZ002-005-008-009-011-012-014-242000-
NEW HAMPSHIRE
  
CITY           SKY/WX    TMP DP  RH WIND       PRES   REMARKS
ROCHESTER      FAIR      82  43  25 NW5       29.82S                  
NASHUA         FAIR      84  48  28 NW9       29.82F                  
MANCHESTER     PTSUNNY   85  41  21 NW12      29.81S                  
CONCORD        FAIR      83  45  26 NW10      29.83S                  
LACONIA        FAIR      81  45  28 W8        29.84S                  
PLYMOUTH       FAIR      80  44  27 W5        29.83F                  
BERLIN         FAIR      77  38  24 VRB5      29.85S                  
WHITEFIELD     FAIR      77  39  25 W9        29.86S                  
JAFFREY        FAIR      82  49  31 NW7       29.86F                  
KEENE          FAIR      82  53  36 VRB5      29.84F                  
LEBANON        FAIR      83  49  30 NE6       29.83F                  
MT WASHINGTON  PTSUNNY   50  32  50 NW26G35     N/A                   
$$

VTZ005-007-008-242000-
VERMONT
  
CITY           SKY/WX    TMP DP  RH WIND       PRES   REMARKS
ST JOHNSBURY     N/A     79  37  22 MISG      29.83S                  
MONTPELIER     FAIR      77  46  33 N7        29.90F                  
BURLINGTON     PTSUNNY   80  43  26 N7        29.85F                  
$$

MAZ007-012-024-CTZ003-RIZ002-NYZ038-NYZ072-242000-
SOUTHERN NEW ENGLAND AND NY
  
CITY           SKY/WX    TMP DP  RH WIND       PRES   REMARKS
BOSTON         PTSUNNY   74  54  49 E12       29.83S                  
WORCESTER      FAIR      80  54  40 W10       29.87S                  
NANTUCKET      FAIR      74  60  61 SW10      29.86R                  
PROVIDENCE     PTSUNNY   85  53  33 NW6       29.83S                  
HARTFORD       PTSUNNY   86  50  28 W12       29.83S                  
ALBANY         PTSUNNY   84  54  35 S6        29.84F                  
NEW YORK CITY  PTSUNNY   86  50  28 SW12G17   29.84F                  
$$

ANZ081-ANZ082-ANZ150-NHZ014-MEZ023>029-242000-
COASTAL MARINE OBSERVATIONS
  
STATION/POSITION TIME  TEMP    WIND        PRES    WAVE
                       AIR SEA DIR/SP/G            HT/PER
                 (UTC) (F)     (DEG/KT/KT) (MB)    (FT/S)
ISLE OF SHOALS   1800   62     110/ 13/ 14 1009.4S
JEFFREYS LEDGE   1838      60                N/A     1/ 9
CASHES LEDGE BUO 1850   58 56  160/  8/ 10 1011.6S   1/ 7
GEORGES BANK BUO 1850   57 55  360/  2/  4 1011.1R   3/ 6
$$

.............KEY..............
   WCI - WIND CHILL
   TC  - TEMPERATURE IN CELSIUS
   VSB - VISIBILITY IN MILES
   HX  - HEAT INDEX
   FAIR- INDICATES FEW OR NO CLOUDS BELOW 12,000 FT, WITH NO 
         SIGNIFICANT WEATHER AND/OR OBSTRUCTIONS TO VISIBILITY.